Weather in Ural

Russia / Krasnoyarsk Krai     55°54′21″N   94°44′56″E
temp.,
°C
wind,
m/s
gust,
m/s
humid.,
%
clouds,
%
prec.,
mm/h
press.,
hPa
HPBL,
m
17 june, thu
thu1701:00+10w11915 0.0 101510
04:00+9ssw1192100 0.0 101512
07:00+14s248060 0.0 1014274
10:00+18s346693 0.0 1013784
13:00+22sw2359100 0.3 10111403
16:00+23s235997 0.9 10101217
19:00+21s367215 1.0 1008395
22:00+16sse128817 0.6 100814
18 june, fri
fri1801:00+14sw2291100 0.9 100815
04:00+13ssw229198 0.4 100717
07:00+17sw248259 0.4 1007227
10:00+21w456784 0.1 1006934
13:00+23wsw35579 1.1 10051517
16:00+25wsw455075 0.1 10042194
19:00+19w3775100 0.1 1004162
22:00+17w1179100 0.1 100511
19 june, sat
sat1901:00+16wsw2382100 0.2 100442
04:00+15sw1190100 0.2 100312
07:00+16wsw359074 1.3 1003282
10:00+19w237735 1.3 1003717
13:00+22wsw126311 2.6 10021151
16:00+24e135123 0.2 10011746
19:00+21e237312 0.3 100188
22:00+16ese11860 0.0 100211
20 june, sun
sun2001:00+14nne22900 0.0 100211
04:00+13ene22920 0.0 100212
07:00+17ene22820 0.0 1003262
10:00+21ene22670 0.0 1003850
13:00+23ne22563 0.0 10031423
16:00+24e33540 0.0 10031340
19:00+23e24670 0.0 1004351
22:00+17n118221 0.0 100511
21 june, mon
mon2101:00+17w227990 0.0 100641
04:00+15nw499667 0.1 1007318
07:00+14w6895100 0.1 1009445
10:00+13wnw6787100 0.0 1010438
13:00+13wnw6780100 0.0 1010525
16:00+13wnw6776100 0.0 1010677
19:00+11w4793100 0.5 1011437
22:00+10wsw4797100 2.3 1011394